| time (UTC) | temp F | wind direction | speed MPH | gust MPH | rain 1hr in | rain 24hr in | rain mn in | humidity % | barometer mb |
| 20260510033028 | 71 | 335 | 3.0 | 6.0 | 0.00 | 0.00 | 0.00 | 41 | 1028.6 |
| 20260510032026 | 70 | 330 | 2.0 | 5.0 | 0.00 | 0.00 | 0.00 | 43 | 1028.7 |
| 20260510031022 | 69 | 1 | 1.0 | 3.0 | 0.00 | 0.00 | 0.00 | 44 | 1028.7 |
| 20260510030018 | 69 | 341 | 2.0 | 5.0 | 0.00 | 0.00 | 0.00 | 45 | 1028.7 |
| 20260510025035 | 68 | 358 | 2.0 | 4.0 | 0.00 | 0.00 | 0.00 | 45 | 1028.9 |
| 20260510024031 | 68 | 331 | 2.0 | 5.0 | 0.00 | 0.00 | 0.00 | 47 | 1029.0 |
| 20260510023028 | 67 | 332 | 1.0 | 4.0 | 0.00 | 0.00 | 0.00 | 47 | 1029.1 |
| 20260510022024 | 67 | 320 | 2.0 | 5.0 | 0.00 | 0.00 | 0.00 | 48 | 1029.2 |
| 20260510021021 | 66 | 354 | 1.0 | 3.0 | 0.00 | 0.00 | 0.00 | 49 | 1029.3 |
| 20260510020017 | 66 | 109 | 1.0 | 4.0 | 0.00 | 0.00 | 0.00 | 50 | 1029.5 |
| 20260510015034 | 65 | 155 | 1.0 | 4.0 | 0.00 | 0.00 | 0.00 | 51 | 1029.4 |
| 20260510014030 | 65 | 166 | 1.0 | 3.0 | 0.00 | 0.00 | 0.00 | 53 | 1029.5 |
| 20260510013026 | 64 | 157 | 2.0 | 5.0 | 0.00 | 0.00 | 0.00 | 54 | 1029.6 |
| 20260510012023 | 63 | 168 | 2.0 | 4.0 | 0.00 | 0.00 | 0.00 | 55 | 1029.7 |
| 20260510011020 | 63 | 146 | 2.0 | 4.0 | 0.00 | 0.00 | 0.00 | 57 | 1029.7 |
| 20260510010017 | 62 | 144 | 2.0 | 5.0 | 0.00 | 0.00 | 0.00 | 58 | 1029.7 |
| 20260510005034 | 61 | 150 | 2.0 | 4.0 | 0.00 | 0.00 | 0.00 | 61 | 1029.7 |
| 20260510004031 | 59 | 156 | 2.0 | 5.0 | 0.00 | 0.00 | 0.00 | 66 | 1029.7 |
| 20260510003028 | 57 | 44 | 3.0 | 6.0 | 0.00 | 0.00 | 0.00 | 70 | 1029.7 |
| 20260510002024 | 56 | 87 | 2.0 | 6.0 | 0.00 | 0.00 | 0.00 | 72 | 1029.6 |
| 20260510001022 | 54 | 182 | 2.0 | 5.0 | 0.00 | 0.00 | 0.00 | 76 | 1029.5 |
| 20260510000018 | 53 | 22 | 4.0 | 7.0 | 0.00 | 0.00 | 0.00 | 77 | 1029.4 |
| 20260509235036 | 51 | 328 | 3.0 | 4.0 | 0.00 | 0.00 | 0.00 | 77 | 1029.4 |
| 20260509234033 | 51 | 5 | 4.0 | 5.0 | 0.00 | 0.00 | 0.00 | 77 | 1029.3 |
| 20260509233030 | 50 | 32 | 5.0 | 7.0 | 0.00 | 0.00 | 0.00 | 77 | 1029.3 |
| 20260509232027 | 50 | 346 | 4.0 | 6.0 | 0.00 | 0.00 | 0.00 | 77 | 1029.4 |
| 20260509231024 | 50 | 118 | 2.0 | 4.0 | 0.00 | 0.00 | 0.00 | 77 | 1029.3 |
| 20260509230022 | 50 | 182 | 2.0 | 6.0 | 0.00 | 0.00 | 0.00 | 76 | 1029.1 |
| 20260509225017 | 51 | 115 | 3.0 | 6.0 | 0.00 | 0.00 | 0.00 | 76 | 1029.1 |
| 20260509224034 | 51 | 161 | 5.0 | 7.0 | 0.00 | 0.00 | 0.00 | 76 | 1029.2 |
| 20260509223032 | 51 | 331 | 2.0 | 4.0 | 0.00 | 0.00 | 0.00 | 76 | 1029.1 |
| 20260509222029 | 51 | 129 | 3.0 | 6.0 | 0.00 | 0.00 | 0.00 | 76 | 1029.1 |
| 20260509221024 | 51 | 26 | 5.0 | 7.0 | 0.00 | 0.00 | 0.00 | 76 | 1028.9 |
| 20260509220018 | 51 | 346 | 3.0 | 6.0 | 0.00 | 0.00 | 0.00 | 75 | 1028.9 |
| 20260509215035 | 51 | 36 | 2.0 | 4.0 | 0.00 | 0.00 | 0.00 | 75 | 1028.8 |
| 20260509214032 | 51 | 352 | 3.0 | 6.0 | 0.00 | 0.00 | 0.00 | 76 | 1028.7 |
| 20260509213028 | 51 | 194 | 3.0 | 6.0 | 0.00 | 0.00 | 0.00 | 76 | 1028.6 |
| 20260509212024 | 50 | 147 | 5.0 | 8.0 | 0.00 | 0.00 | 0.00 | 77 | 1028.6 |
| 20260509211021 | 50 | 317 | 1.0 | 4.0 | 0.00 | 0.00 | 0.00 | 77 | 1028.6 |
| 20260509210018 | 49 | 136 | 2.0 | 5.0 | 0.00 | 0.00 | 0.00 | 77 | 1028.4 |
| 20260509205035 | 50 | 212 | 5.0 | 7.0 | 0.00 | 0.00 | 0.00 | 76 | 1028.4 |
| 20260509204030 | 50 | 60 | 2.0 | 4.0 | 0.00 | 0.00 | 0.00 | 76 | 1028.3 |
| 20260509203026 | 50 | 148 | 3.0 | 5.0 | 0.00 | 0.00 | 0.00 | 76 | 1028.3 |
| 20260509202022 | 50 | 28 | 2.0 | 5.0 | 0.00 | 0.00 | 0.00 | 77 | 1028.2 |
| 20260509201018 | 49 | 55 | 1.0 | 2.0 | 0.00 | 0.00 | 0.00 | 77 | 1028.0 |
| 20260509200034 | 49 | 303 | 0.0 | 2.0 | 0.00 | 0.00 | 0.00 | 77 | 1027.9 |
| 20260509195032 | 48 | 2 | 0.0 | 2.0 | 0.00 | 0.00 | 0.00 | 76 | 1028.0 |
| 20260509194025 | 48 | 56 | 0.0 | 2.0 | 0.00 | 0.00 | 0.00 | 75 | 1027.9 |
| 20260509193020 | 49 | 53 | 1.0 | 2.0 | 0.00 | 0.00 | 0.00 | 74 | 1027.8 |
| 20260509192017 | 50 | 66 | 0.0 | 2.0 | 0.00 | 0.00 | 0.00 | 73 | 1028.0 |
| 20260509191033 | 50 | 26 | 0.0 | 3.0 | 0.00 | 0.00 | 0.00 | 74 | 1028.0 |
| 20260509190030 | 49 | 35 | 1.0 | 2.0 | 0.00 | 0.00 | 0.00 | 75 | 1028.0 |
| 20260509185025 | 49 | 20 | 0.0 | 2.0 | 0.00 | 0.00 | 0.00 | 75 | 1028.0 |
| 20260509184022 | 49 | 0.0 | 2.0 | 0.00 | 0.00 | 0.00 | 75 | 1027.9 | |
| 20260509183019 | 49 | 10 | 1.0 | 2.0 | 0.00 | 0.00 | 0.00 | 74 | 1028.0 |
| 20260509182035 | 49 | 340 | 1.0 | 2.0 | 0.00 | 0.00 | 0.00 | 74 | 1027.9 |
| 20260509181032 | 49 | 343 | 0.0 | 2.0 | 0.00 | 0.00 | 0.00 | 75 | 1028.0 |
| 20260509180029 | 49 | 337 | 1.0 | 2.0 | 0.00 | 0.00 | 0.00 | 75 | 1028.1 |
| 20260509175024 | 49 | 10 | 1.0 | 2.0 | 0.00 | 0.00 | 0.00 | 75 | 1028.1 |
| 20260509174021 | 49 | 6 | 1.0 | 2.0 | 0.00 | 0.00 | 0.00 | 75 | 1028.2 |
| 20260509173017 | 49 | 25 | 1.0 | 2.0 | 0.00 | 0.00 | 0.00 | 75 | 1028.2 |
| 20260509172034 | 49 | 337 | 1.0 | 2.0 | 0.00 | 0.00 | 0.00 | 74 | 1028.3 |
| 20260509171031 | 49 | 342 | 1.0 | 2.0 | 0.00 | 0.00 | 0.00 | 73 | 1028.1 |
| 20260509170028 | 49 | 293 | 0.0 | 2.0 | 0.00 | 0.00 | 0.00 | 73 | 1028.2 |
| 20260509165022 | 50 | 357 | 0.0 | 2.0 | 0.00 | 0.00 | 0.00 | 74 | 1028.2 |
| 20260509164018 | 49 | 312 | 0.0 | 2.0 | 0.00 | 0.00 | 0.00 | 74 | 1028.3 |
| 20260509163035 | 50 | 23 | 1.0 | 2.0 | 0.00 | 0.00 | 0.00 | 73 | 1028.3 |
| 20260509162033 | 50 | 347 | 1.0 | 2.0 | 0.00 | 0.00 | 0.00 | 72 | 1028.3 |
| 20260509161029 | 50 | 3 | 1.0 | 3.0 | 0.00 | 0.00 | 0.00 | 72 | 1028.3 |
| 20260509160024 | 51 | 356 | 1.0 | 2.0 | 0.00 | 0.00 | 0.00 | 71 | 1028.4 |
| 20260509155032 | 51 | 14 | 1.0 | 2.0 | 0.00 | 0.00 | 0.00 | 71 | 1028.4 |
| 20260509154035 | 51 | 13 | 0.0 | 2.0 | 0.00 | 0.00 | 0.00 | 70 | 1028.5 |
| 20260509153032 | 51 | 4 | 0.0 | 2.0 | 0.00 | 0.00 | 0.00 | 71 | 1028.5 |
| 20260509152028 | 51 | 322 | 1.0 | 2.0 | 0.00 | 0.00 | 0.00 | 71 | 1028.6 |
| 20260509151022 | 51 | 310 | 0.0 | 2.0 | 0.00 | 0.00 | 0.00 | 70 | 1028.7 |
| 20260509150019 | 51 | 27 | 0.0 | 3.0 | 0.00 | 0.00 | 0.00 | 70 | 1028.7 |
| 20260509145035 | 52 | 16 | 1.0 | 2.0 | 0.00 | 0.00 | 0.00 | 69 | 1028.8 |
| 20260509144032 | 52 | 36 | 1.0 | 2.0 | 0.00 | 0.00 | 0.00 | 70 | 1028.7 |
| 20260509143029 | 52 | 33 | 1.0 | 2.0 | 0.00 | 0.00 | 0.00 | 71 | 1028.8 |
| 20260509142025 | 52 | 37 | 1.0 | 3.0 | 0.00 | 0.00 | 0.00 | 70 | 1028.8 |
| 20260509141021 | 52 | 53 | 1.0 | 2.0 | 0.00 | 0.00 | 0.00 | 69 | 1028.8 |
| 20260509140018 | 53 | 35 | 1.0 | 2.0 | 0.00 | 0.00 | 0.00 | 67 | 1028.8 |
| 20260509135016 | 53 | 40 | 1.0 | 2.0 | 0.00 | 0.00 | 0.00 | 68 | 1028.8 |
| 20260509134033 | 52 | 14 | 2.0 | 3.0 | 0.00 | 0.00 | 0.00 | 70 | 1028.7 |
| 20260509133030 | 52 | 36 | 0.0 | 2.0 | 0.00 | 0.00 | 0.00 | 69 | 1028.8 |
| 20260509132026 | 52 | 17 | 0.0 | 2.0 | 0.00 | 0.00 | 0.00 | 68 | 1028.6 |
| 20260509131023 | 52 | 26 | 0.0 | 2.0 | 0.00 | 0.00 | 0.00 | 69 | 1028.7 |
| 20260509130022 | 53 | 43 | 0.0 | 2.0 | 0.00 | 0.00 | 0.00 | 68 | 1028.6 |
| 20260509125017 | 53 | 56 | 1.0 | 2.0 | 0.00 | 0.00 | 0.00 | 67 | 1028.4 |
| 20260509124033 | 54 | 63 | 1.0 | 2.0 | 0.00 | 0.00 | 0.00 | 66 | 1028.5 |
| 20260509123030 | 55 | 58 | 1.0 | 2.0 | 0.00 | 0.00 | 0.00 | 65 | 1028.4 |
| 20260509122027 | 55 | 50 | 2.0 | 3.0 | 0.00 | 0.00 | 0.00 | 65 | 1028.4 |
| 20260509121022 | 55 | 72 | 1.0 | 2.0 | 0.00 | 0.00 | 0.00 | 65 | 1028.3 |
| 20260509120019 | 55 | 72 | 1.0 | 2.0 | 0.00 | 0.00 | 0.00 | 66 | 1028.2 |
| 20260509115035 | 56 | 75 | 1.0 | 2.0 | 0.00 | 0.00 | 0.00 | 64 | 1028.2 |
| 20260509114031 | 56 | 77 | 0.0 | 2.0 | 0.00 | 0.00 | 0.00 | 64 | 1028.2 |
| 20260509113029 | 58 | 84 | 0.0 | 2.0 | 0.00 | 0.00 | 0.00 | 63 | 1028.1 |
| 20260509112023 | 59 | 84 | 0.0 | 2.0 | 0.00 | 0.00 | 0.00 | 60 | 1028.1 |
| 20260509111020 | 59 | 72 | 1.0 | 2.0 | 0.00 | 0.00 | 0.00 | 61 | 1028.1 |
| 20260509110016 | 60 | 61 | 1.0 | 3.0 | 0.00 | 0.00 | 0.00 | 59 | 1028.1 |
| 20260509105033 | 59 | 70 | 1.0 | 3.0 | 0.00 | 0.00 | 0.00 | 61 | 1028.1 |
| 20260509104029 | 59 | 80 | 0.0 | 2.0 | 0.00 | 0.00 | 0.00 | 60 | 1028.1 |
| 20260509103024 | 59 | 89 | 1.0 | 2.0 | 0.00 | 0.00 | 0.00 | 58 | 1028.0 |
| 20260509102019 | 60 | 83 | 1.0 | 2.0 | 0.00 | 0.00 | 0.00 | 56 | 1028.1 |
| 20260509101035 | 61 | 90 | 0.0 | 2.0 | 0.00 | 0.00 | 0.00 | 56 | 1028.0 |
| 20260509100032 | 63 | 142 | 1.0 | 2.0 | 0.00 | 0.00 | 0.00 | 55 | 1027.9 |
| 20260509095028 | 64 | 143 | 1.0 | 2.0 | 0.00 | 0.00 | 0.00 | 52 | 1027.9 |
| 20260509094023 | 65 | 147 | 2.0 | 4.0 | 0.00 | 0.00 | 0.00 | 50 | 1027.8 |
| 20260509093019 | 67 | 158 | 2.0 | 4.0 | 0.00 | 0.00 | 0.00 | 47 | 1027.6 |
| 20260509092015 | 68 | 139 | 1.0 | 2.0 | 0.00 | 0.00 | 0.00 | 45 | 1027.7 |
| 20260509091032 | 70 | 98 | 1.0 | 2.0 | 0.00 | 0.00 | 0.00 | 43 | 1027.8 |
| 20260509090029 | 72 | 86 | 0.0 | 2.0 | 0.00 | 0.00 | 0.00 | 39 | 1027.8 |
| 20260509085026 | 74 | 27 | 0.0 | 2.0 | 0.00 | 0.00 | 0.00 | 36 | 1027.6 |
| 20260509084022 | 75 | 12 | 0.0 | 1.0 | 0.00 | 0.00 | 0.00 | 34 | 1027.7 |
| 20260509083016 | 75 | 34 | 0.0 | 2.0 | 0.00 | 0.00 | 0.00 | 33 | 1027.7 |
| 20260509082033 | 76 | 23 | 1.0 | 3.0 | 0.00 | 0.00 | 0.00 | 33 | 1027.7 |
| 20260509081029 | 77 | 330 | 0.0 | 2.0 | 0.00 | 0.00 | 0.00 | 32 | 1027.6 |
| 20260509080026 | 75 | 309 | 1.0 | 3.0 | 0.00 | 0.00 | 0.00 | 33 | 1027.6 |
| 20260509075024 | 75 | 338 | 1.0 | 3.0 | 0.00 | 0.00 | 0.00 | 33 | 1027.6 |
| 20260509074019 | 75 | 33 | 1.0 | 3.0 | 0.00 | 0.00 | 0.00 | 32 | 1027.4 |
| 20260509073016 | 76 | 337 | 1.0 | 4.0 | 0.00 | 0.00 | 0.00 | 32 | 1027.5 |
| 20260509072032 | 75 | 329 | 1.0 | 3.0 | 0.00 | 0.00 | 0.00 | 33 | 1027.4 |
| 20260509071029 | 74 | 21 | 1.0 | 4.0 | 0.00 | 0.00 | 0.00 | 34 | 1027.3 |
| 20260509070025 | 74 | 18 | 1.0 | 4.0 | 0.00 | 0.00 | 0.00 | 34 | 1027.3 |
| 20260509065022 | 74 | 72 | 3.0 | 8.0 | 0.00 | 0.00 | 0.00 | 35 | 1027.1 |
| 20260509064019 | 74 | 12 | 1.0 | 3.0 | 0.00 | 0.00 | 0.00 | 35 | 1027.1 |
| 20260509063017 | 74 | 64 | 2.0 | 5.0 | 0.00 | 0.00 | 0.00 | 35 | 1027.0 |
| 20260509062034 | 75 | 319 | 3.0 | 6.0 | 0.00 | 0.00 | 0.00 | 33 | 1027.0 |
| 20260509061032 | 73 | 118 | 1.0 | 5.0 | 0.00 | 0.00 | 0.00 | 35 | 1027.2 |
| 20260509060028 | 74 | 18 | 2.0 | 6.0 | 0.00 | 0.00 | 0.00 | 34 | 1027.1 |
| 20260509055026 | 73 | 7 | 1.0 | 4.0 | 0.00 | 0.00 | 0.00 | 36 | 1027.4 |
| 20260509054023 | 73 | 31 | 1.0 | 5.0 | 0.00 | 0.00 | 0.00 | 37 | 1027.5 |
| 20260509053020 | 73 | 26 | 2.0 | 5.0 | 0.00 | 0.00 | 0.00 | 38 | 1027.5 |
| 20260509052017 | 72 | 67 | 2.0 | 6.0 | 0.00 | 0.00 | 0.00 | 38 | 1027.6 |
| 20260509051035 | 72 | 67 | 3.0 | 9.0 | 0.00 | 0.00 | 0.00 | 39 | 1027.7 |
| 20260509050031 | 72 | 67 | 3.0 | 6.0 | 0.00 | 0.00 | 0.00 | 40 | 1027.9 |
| 20260509045028 | 72 | 9 | 2.0 | 4.0 | 0.00 | 0.00 | 0.00 | 39 | 1028.2 |
| 20260509044026 | 71 | 54 | 2.0 | 5.0 | 0.00 | 0.00 | 0.00 | 40 | 1028.3 |
| 20260509043021 | 71 | 321 | 2.0 | 5.0 | 0.00 | 0.00 | 0.00 | 41 | 1028.5 |
| 20260509042019 | 70 | 76 | 2.0 | 6.0 | 0.00 | 0.00 | 0.00 | 42 | 1028.8 |
| 20260509041016 | 70 | 24 | 2.0 | 6.0 | 0.00 | 0.00 | 0.00 | 41 | 1029.0 |
| 20260509040033 | 71 | 4 | 2.0 | 4.0 | 0.00 | 0.00 | 0.00 | 41 | 1029.2 |
| 20260509035031 | 70 | 14 | 2.0 | 6.0 | 0.00 | 0.00 | 0.00 | 42 | 1029.5 |
| 20260509034028 | 69 | 2 | 2.0 | 4.0 | 0.00 | 0.00 | 0.00 | 43 | 1029.7 |